SCP
0 0 0 0 0 0 0 0 0 0 0 0 0 0 0 0 0 0 0 0 0 0 0 0 0 0 0 0 0 0 0 0 0 0 1 0 0 0 0 0 0 0 1 1
0 0 0 0 0 0 0 0 0 0 0 0 0 0 0 0 0 0 0 0 0 0 0 0 0 0 0 0 0 0 0 0 0 0 0 0 0 0 0 0 0 0 0 0
0 0 0 0 0 0 0 0 0 0 0 0 0 0 0 0 0 0 0 0 0 0 0 0 0 0 0 0 0 0 0 0 0 0 0 0 0 0 0 0 0 0 0 0
0 0 0 0 0 0 0 0 0 0 0 0 0 0 0 0 0 0 0 0 0 0 0 0 -0 0 0 0 0 0 0 0 0 0 0 0 0 0 0 0 0 0 0 0
0 0 0 0 0 0 0 0 0 0 0 0 0 0 0 0 0 0 0 0 0 0 0 0 0 0 0 0 0 0 -0 -0 0 0 0 0 0 0 0 0 0 0 0 -0
0 0 0 0 0 0 0 0 0 0 0 0 0 0 0 0 0 0 0 0 0 0 0 0 0 0 0 0 0 0 0 0 -0 0 0 0 0 0 0 0 0 0 0 0
0 0 0 0 0 0 0 0 0 0 0 0 0 0 0 -0 0 0 0 0 0 0 0 0 0 0 0 0 0 0 0 0 -0 -0 0 0 0 0 0 0 0 0 0 0
0 0 0 0 0 0 0 0 0 0 0 0 0 0 0 0 0 0 0 0 0 0 0 0 0 0 0 0 0 0 0 0 0 0 0 0 0 0 0 0 0 0 0 0
0 0 0 0 0 0 0 0 0 0 0 0 0 0 -0 0 0 0 0 0 0 -0 -0 -0 0 0 0 0 0 0 0 0 0 0 0 0 0 0 0 -0 0 0 0 0
0 0 0 0 0 0 0 0 0 0 0 0 0 -0 -0 0 0 0 0 0 0 -0 -0 0 0 0 0 0 0 0 0 0 0 0 0 0 0 0 0 0 0 0 0 0
0 0 0 0 0 0 0 0 0 0 0 0 0 -0 0 0 0 0 0 0 0 0 -0 0 0 0 0 0 0 0 0 0 0 0 0 0 0 0 0 0 -0 0 0 0
0 0 0 0 0 0 0 0 0 0 0 0 0 0 0 0 0 0 0 0 0 0 0 0 0 0 0 0 0 0 0 0 0 0 0 0 0 0 0 0 0 0 0 0
0 0 0 0 0 0 0 0 0 0 0 0 0 0 0 0 0 0 0 0 0 0 0 0 0 0 0 0 -0 0 0 0 0 0 0 0 0 0 0 0 0 0 0 0
0 0 0 0 0 0 0 0 0 0 0 0 0 0 0 0 0 0 0 0 -0 0 0 0 0 0 0 0 0 0 0 0 0 0 0 0 0 -0 0 0 0 0 0 0
0 0 0 0 0 0 0 0 0 0 0 0 0 0 0 0 0 0 0 0 0 0 0 0 0 0 0 0 0 0 0 0 0 0 0 0 0 0 0 0 0 0 0 0
0 0 0 0 0 0 0 0 0 0 0 0 0 0 0 0 0 -0 0 -0 -0 0 0 -0 0 0 0 -0 0 0 0 0 0 0 0 0 0 0 0 0 0 0 0 0
0 -0 0 0 0 0 0 0 0 0 0 0 0 -0 0 0 0 0 -0 -0 -0 -0 -0 -0 -0 0 0 -0 0 0 0 0 0 0 0 0 0 0 0 0 0 0 0 0
0 0 -0 -0 -0 -0 0 0 0 0 0 0 -0 0 0 0 0 0 0 -0 -0 -0 -0 -0 -0 0 0 0 0 0 0 0 0 0 0 0 0 0 0 0 0 0 0 0
0 0 0 0 0 -0 -0 0 0 0 0 0 0 0 0 0 0 0 0 0 -0 -0 -0 -0 0 0 0 0 0 0 0 0 0 0 0 0 0 0 0 0 0 0 0 0
0 0 0 0 -0 -0 0 0 0 0 0 -0 0 0 0 0 0 0 0 0 -0 -0 -0 0 0 0 0 0 0 0 0 0 0 0 0 -0 -0 0 0 0 0 0 0 0
-0 -0 -0 -0 -0 0 0 0 0 0 0 0 0 0 -0 0 0 0 0 0 0 0 0 0 0 0 0 0 0 0 0 0 0 0 0 0 0 0 0 0 0 0 0 0
0 -0 -0 0 0 0 0 0 0 0 -0 0 0 0 0 0 0 0 0 -0 0 0 0 0 0 0 0 0 0 0 0 0 0 0 0 0 0 0 0 0 0 0 0 0
-0 -0 -0 0 0 0 0 0 0 0 0 0 0 0 0 0 0 0 0 0 0 0 0 0 0 0 0 0 0 0 0 0 0 0 0 0 0 0 0 0 0 0 0 0
0 0 0 0 0 0 0 0 0 0 0 0 -0 0 0 0 0 0 0 0 0 0 0 0 0 0 0 0 0 0 0 0 0 0 0 0 0 0 0 0 0 0 0 0
0 0 0 0 0 0 0 0 0 0 0 -0 0 0 0 0 0 0 0 0 0 0 0 0 0 0 0 0 0 0 0 0 0 0 0 0 0 0 0 0 0 0 0 0
0 0 0 -0 -0 -0 -0 0 0 0 0 0 0 0 0 0 0 0 0 0 0 0 0 0 0 0 0 0 0 0 0 0 0 0 0 0 0 0 0 0 0 0 0 0
0 0 0 0 -0 -0 -0 -0 -0 0 0 0 0 0 0 0 0 0 0 0 0 0 0 0 0 0 0 0 0 0 0 0 0 0 0 0 0 0 0 0 0 0 0 0
Wind_Speed_500mb
11 13 8 11 14 12 15 14 12 13 13 18 15 13 18 28 32 39 43 45 41 38 33 19 9 13 15 16 15 19 19 25 34 42 45 61 62 65 63 56 43 38 47 53
9 17 18 12 20 20 26 9 12 12 15 10 13 25 23 30 29 36 40 42 36 36 30 19 16 12 10 10 4 7 10 15 19 22 33 47 36 30 36 35 14 18 19 38
14 10 6 12 15 13 9 7 8 10 12 7 13 17 29 36 33 37 40 43 40 36 24 17 9 7 15 6 8 4 2 11 11 17 23 31 37 38 40 28 39 54 40 50
8 4 5 12 6 2 8 9 10 14 11 10 19 30 44 40 34 30 29 33 33 32 12 9 13 9 12 10 10 11 8 2 2 2 7 16 22 25 30 34 27 33 43 64
3 5 10 9 4 3 0 11 4 6 12 21 27 28 40 22 16 24 38 35 28 15 7 9 9 10 11 14 13 7 5 9 9 9 5 6 6 7 14 14 7 7 16 40
4 5 8 9 3 2 4 9 7 12 17 19 19 9 9 27 34 42 28 27 20 13 5 3 10 12 21 26 27 29 27 24 17 10 7 9 8 11 10 3 7 9 12 23
5 7 13 9 9 8 2 12 12 21 32 27 8 23 38 46 44 36 25 21 13 8 7 12 18 20 28 30 33 33 30 28 21 18 24 28 25 15 4 8 12 14 29 37
4 2 10 13 6 8 13 15 23 27 34 33 42 52 49 45 42 27 16 8 12 11 18 22 20 16 23 25 26 22 19 18 21 28 29 28 25 25 20 2 11 13 14 25
14 11 15 12 30 30 24 29 38 36 42 43 47 52 48 44 33 13 6 10 9 20 21 21 16 11 13 14 14 13 10 11 13 15 21 27 28 28 29 23 16 17 14 13
3 12 15 32 33 33 35 39 36 38 41 37 40 43 46 39 27 18 21 19 21 24 22 16 11 11 12 12 10 8 7 8 8 8 12 16 21 26 31 33 31 26 21 18
10 22 24 28 24 23 20 26 35 38 35 25 31 33 33 18 15 17 26 24 22 17 12 15 16 12 13 11 8 3 4 5 1 3 4 9 11 13 17 24 29 28 25 23
11 36 14 28 13 15 27 33 27 26 24 17 20 23 20 8 6 5 21 27 27 21 18 14 9 7 4 4 4 5 4 2 3 6 5 6 6 8 9 9 12 17 19 20
16 14 21 20 21 24 25 24 20 20 18 17 14 14 13 9 6 9 11 19 17 16 13 10 5 3 3 6 10 11 6 7 3 2 5 8 11 12 5 4 8 8 7 8
11 11 19 19 22 28 27 24 18 18 20 16 10 9 10 10 4 2 7 9 13 10 8 7 3 2 5 8 7 2 5 3 1 1 3 6 2 5 9 5 4 2 4 3
10 17 31 37 38 33 26 23 22 23 22 16 9 6 9 10 4 1 4 4 4 4 2 5 3 2 11 11 1 5 7 7 10 7 6 14 16 8 6 3 2 5 5 4
14 25 32 29 28 28 22 21 25 28 26 25 12 15 17 11 11 8 7 6 4 2 1 3 5 4 6 12 5 5 9 6 7 5 5 7 6 8 9 4 4 3 8 7
13 33 31 24 22 28 27 28 28 27 24 27 24 22 27 19 19 20 12 9 11 10 8 8 5 9 9 10 6 3 12 7 5 8 9 9 9 3 2 6 6 7 8 2
18 20 26 23 29 35 28 18 20 22 22 25 32 41 35 25 24 16 21 17 18 16 15 11 12 13 13 13 5 1 11 9 3 4 7 9 7 3 4 4 4 5 7 7
17 25 27 27 30 35 33 23 22 12 22 12 16 26 25 25 23 27 21 18 22 22 8 12 15 15 13 13 5 6 8 7 6 3 4 9 15 15 9 8 10 10 13 17
21 25 32 32 34 35 18 16 20 22 23 23 22 21 22 23 19 22 22 24 16 18 17 13 16 15 11 9 7 9 9 12 13 12 9 7 6 8 12 15 18 22 13 11
24 27 38 38 34 28 22 21 22 25 17 24 22 25 21 18 22 25 30 24 21 20 19 18 15 11 12 6 3 13 18 17 21 17 12 14 14 15 15 13 11 13 17 16
27 36 42 40 32 30 26 21 23 20 19 17 18 23 22 19 19 20 24 34 23 21 24 24 18 9 11 15 15 8 12 14 14 14 14 14 15 18 18 17 17 14 10 11
34 36 31 28 28 26 20 17 22 27 25 24 23 21 18 15 13 14 19 17 25 26 29 25 26 15 14 13 17 20 19 20 22 23 24 26 23 22 20 18 19 23 23 21
28 30 28 26 24 24 27 28 27 29 31 29 25 25 23 22 15 17 30 37 33 27 30 31 32 20 16 13 12 13 13 15 18 24 31 25 30 33 30 29 31 32 31 30
25 25 29 36 37 36 31 31 30 33 34 31 21 27 28 26 23 23 27 39 41 43 41 34 34 28 25 23 18 18 20 20 20 20 24 27 22 22 30 33 34 33 30 30
27 27 26 31 37 39 39 32 29 37 37 32 24 28 26 18 16 11 9 13 17 28 28 23 21 23 26 28 28 28 29 30 29 26 25 29 32 32 31 28 28 29 35 36
34 36 37 33 30 33 37 38 42 42 29 45 23 27 44 33 28 30 30 19 19 20 16 12 9 6 1 5 8 8 19 22 24 26 28 29 33 38 41 43 47 51 51 53
Wind_Direction_500mb
240 236 209 233 251 242 196 214 191 251 221 262 264 294 301 308 306 308 310 310 310 303 293 293 298 320 316 321 335 327 247 240 236 231 226 230 225 223 219 219 210 222 242 253
240 246 235 236 247 247 248 232 237 252 261 244 297 321 315 309 310 309 305 307 305 302 285 291 299 304 336 326 330 349 240 193 187 205 212 207 204 193 202 195 220 223 257 249
274 261 276 295 234 212 218 215 202 227 237 351 318 328 318 314 309 307 308 311 311 307 294 300 320 324 295 14 37 74 182 180 191 183 194 204 209 212 212 229 233 241 253 260
260 353 217 249 316 322 221 257 226 271 278 278 276 299 310 306 290 303 313 320 317 306 284 306 332 356 314 350 32 44 39 70 158 318 251 233 222 221 224 229 234 262 238 250
208 213 283 287 297 282 119 288 232 253 293 291 311 320 321 311 290 300 307 310 312 301 305 337 9 26 14 51 60 69 68 63 49 51 68 82 119 156 215 223 223 255 254 259
139 206 242 238 286 14 101 294 249 219 260 269 321 324 267 327 305 312 306 303 285 261 263 110 82 86 92 91 86 74 61 51 41 57 41 58 49 35 9 315 271 293 276 258
192 240 287 236 209 161 104 241 257 244 264 285 217 258 296 308 308 305 291 307 243 179 172 121 111 111 105 96 84 74 65 60 52 53 54 52 47 43 266 230 218 251 256 256
120 199 296 171 134 187 225 282 293 298 305 306 305 303 306 310 307 303 278 240 183 160 153 129 122 117 104 92 84 79 79 73 59 62 59 52 44 42 39 138 181 212 228 232
174 222 234 226 247 271 270 290 295 298 305 311 304 302 308 306 297 276 217 168 108 158 155 132 121 105 89 81 82 72 69 69 60 51 59 56 53 48 57 68 125 121 139 134
84 273 249 290 281 275 283 285 290 294 302 305 303 304 302 300 276 246 205 185 162 176 156 134 115 100 91 90 82 63 35 39 56 68 64 57 56 57 64 71 81 94 95 94
251 280 292 286 275 303 298 292 292 301 300 302 307 312 312 300 280 247 212 187 169 175 153 135 119 105 89 70 57 355 306 326 222 137 97 90 82 76 63 68 75 77 76 79
237 268 249 272 295 300 298 304 304 297 295 297 318 327 323 296 246 120 167 181 188 169 172 155 134 116 52 60 78 20 355 215 163 164 133 126 110 95 88 78 81 84 83 79
256 313 294 277 301 295 291 289 295 294 277 290 310 328 350 339 205 137 160 164 171 164 148 142 134 89 346 302 310 326 288 204 196 227 287 280 254 233 204 119 108 103 68 57
315 315 289 300 311 304 288 284 286 296 270 273 307 317 305 310 316 106 165 131 147 180 183 165 171 339 325 311 315 320 87 103 179 40 16 19 323 204 183 155 101 2 313 296
283 284 280 286 287 283 275 272 274 270 264 267 259 305 343 333 6 78 184 194 201 210 209 216 178 87 20 7 36 158 113 72 128 122 94 46 54 113 135 184 269 273 273 326
314 308 296 281 275 270 277 276 281 298 272 264 256 249 282 280 283 260 243 241 233 16 131 223 235 279 340 9 15 158 174 105 92 82 24 3 14 26 37 47 24 341 271 252
352 2 345 321 320 314 299 297 307 307 291 225 234 267 290 270 260 251 242 247 239 250 258 258 238 265 290 336 348 334 186 180 117 34 20 40 63 59 357 343 9 49 29 172
325 349 353 351 341 329 332 334 335 326 299 282 270 270 279 271 265 250 232 242 248 255 260 270 281 268 268 289 288 318 183 201 188 13 59 50 35 21 19 3 1 330 311 298
334 359 0 355 345 322 306 314 313 323 322 290 275 275 269 262 267 262 252 232 243 248 259 262 279 272 270 289 217 192 199 191 165 52 49 46 50 49 43 12 352 317 282 264
15 13 360 346 343 350 333 313 323 309 313 314 273 268 268 259 252 252 251 247 233 228 222 255 275 279 259 216 216 210 225 214 217 253 262 272 297 355 2 360 355 359 341 299
348 343 343 336 325 334 342 351 343 341 331 329 317 303 281 266 249 250 256 241 225 233 234 244 257 251 194 195 260 246 232 246 266 257 248 275 277 275 283 298 324 4 27 20
330 327 327 328 322 318 326 325 336 348 343 336 332 336 341 319 277 258 231 245 248 230 223 232 221 224 242 259 256 265 224 244 243 231 242 273 273 264 267 254 264 283 312 342
335 335 335 345 350 349 345 336 342 341 339 335 328 317 314 329 329 300 322 274 246 232 233 232 223 219 229 247 238 235 252 261 260 260 259 262 267 263 259 256 263 267 273 280
20 25 30 29 18 0 7 8 1 354 346 337 331 329 319 299 279 262 282 291 290 264 251 239 223 219 227 222 220 230 253 251 275 268 252 265 268 259 262 263 268 274 273 265
40 38 32 27 17 12 7 2 360 0 1 354 337 330 328 325 311 271 247 279 288 267 245 240 213 212 220 229 237 252 262 268 279 291 269 256 270 270 258 259 269 271 269 267
42 30 25 29 34 31 21 19 30 22 12 8 351 0 350 343 345 331 283 281 282 261 239 192 209 233 233 241 251 259 267 270 269 268 263 259 263 265 268 269 273 279 275 275
43 34 29 31 32 31 22 21 19 11 8 8 358 13 13 37 63 77 73 73 69 55 73 73 32 42 72 279 300 280 261 269 267 269 269 267 263 260 262 267 272 273 272 271
Wind_Speed_850mb
11 13 8 11 14 12 15 14 12 13 13 18 15 13 18 28 32 39 43 45 41 38 33 19 9 13 15 16 15 19 19 25 34 42 45 61 62 65 63 56 43 38 47 53
9 17 18 12 20 20 26 9 12 12 15 10 13 25 23 30 29 36 40 42 36 36 30 19 16 12 10 10 4 7 10 15 19 22 33 47 36 30 36 35 14 18 19 38
14 10 6 12 15 13 9 7 8 10 12 7 13 17 29 36 33 37 40 43 40 36 24 17 9 7 15 6 8 4 2 11 11 17 23 31 37 38 40 28 39 54 40 50
8 4 5 12 6 2 8 9 10 14 11 10 19 30 44 40 34 30 29 33 33 32 12 9 13 9 12 10 10 11 8 2 2 2 7 16 22 25 30 34 27 33 43 64
3 5 10 9 4 3 0 11 4 6 12 21 27 28 40 22 16 24 38 35 28 15 7 9 9 10 11 14 13 7 5 9 9 9 5 6 6 7 14 14 7 7 16 40
4 5 8 9 3 2 4 9 7 12 17 19 19 9 9 27 34 42 28 27 20 13 5 3 10 12 21 26 27 29 27 24 17 10 7 9 8 11 10 3 7 9 12 23
5 7 13 9 9 8 2 12 12 21 32 27 8 23 38 46 44 36 25 21 13 8 7 12 18 20 28 30 33 33 30 28 21 18 24 28 25 15 4 8 12 14 29 37
4 2 10 13 6 8 13 15 23 27 34 33 42 52 49 45 42 27 16 8 12 11 18 22 20 16 23 25 26 22 19 18 21 28 29 28 25 25 20 2 11 13 14 25
14 11 15 12 30 30 24 29 38 36 42 43 47 52 48 44 33 13 6 10 9 20 21 21 16 11 13 14 14 13 10 11 13 15 21 27 28 28 29 23 16 17 14 13
3 12 15 32 33 33 35 39 36 38 41 37 40 43 46 39 27 18 21 19 21 24 22 16 11 11 12 12 10 8 7 8 8 8 12 16 21 26 31 33 31 26 21 18
10 22 24 28 24 23 20 26 35 38 35 25 31 33 33 18 15 17 26 24 22 17 12 15 16 12 13 11 8 3 4 5 1 3 4 9 11 13 17 24 29 28 25 23
11 36 14 28 13 15 27 33 27 26 24 17 20 23 20 8 6 5 21 27 27 21 18 14 9 7 4 4 4 5 4 2 3 6 5 6 6 8 9 9 12 17 19 20
16 14 21 20 21 24 25 24 20 20 18 17 14 14 13 9 6 9 11 19 17 16 13 10 5 3 3 6 10 11 6 7 3 2 5 8 11 12 5 4 8 8 7 8
11 11 19 19 22 28 27 24 18 18 20 16 10 9 10 10 4 2 7 9 13 10 8 7 3 2 5 8 7 2 5 3 1 1 3 6 2 5 9 5 4 2 4 3
10 17 31 37 38 33 26 23 22 23 22 16 9 6 9 10 4 1 4 4 4 4 2 5 3 2 11 11 1 5 7 7 10 7 6 14 16 8 6 3 2 5 5 4
14 25 32 29 28 28 22 21 25 28 26 25 12 15 17 11 11 8 7 6 4 2 1 3 5 4 6 12 5 5 9 6 7 5 5 7 6 8 9 4 4 3 8 7
13 33 31 24 22 28 27 28 28 27 24 27 24 22 27 19 19 20 12 9 11 10 8 8 5 9 9 10 6 3 12 7 5 8 9 9 9 3 2 6 6 7 8 2
18 20 26 23 29 35 28 18 20 22 22 25 32 41 35 25 24 16 21 17 18 16 15 11 12 13 13 13 5 1 11 9 3 4 7 9 7 3 4 4 4 5 7 7
17 25 27 27 30 35 33 23 22 12 22 12 16 26 25 25 23 27 21 18 22 22 8 12 15 15 13 13 5 6 8 7 6 3 4 9 15 15 9 8 10 10 13 17
21 25 32 32 34 35 18 16 20 22 23 23 22 21 22 23 19 22 22 24 16 18 17 13 16 15 11 9 7 9 9 12 13 12 9 7 6 8 12 15 18 22 13 11
24 27 38 38 34 28 22 21 22 25 17 24 22 25 21 18 22 25 30 24 21 20 19 18 15 11 12 6 3 13 18 17 21 17 12 14 14 15 15 13 11 13 17 16
27 36 42 40 32 30 26 21 23 20 19 17 18 23 22 19 19 20 24 34 23 21 24 24 18 9 11 15 15 8 12 14 14 14 14 14 15 18 18 17 17 14 10 11
34 36 31 28 28 26 20 17 22 27 25 24 23 21 18 15 13 14 19 17 25 26 29 25 26 15 14 13 17 20 19 20 22 23 24 26 23 22 20 18 19 23 23 21
28 30 28 26 24 24 27 28 27 29 31 29 25 25 23 22 15 17 30 37 33 27 30 31 32 20 16 13 12 13 13 15 18 24 31 25 30 33 30 29 31 32 31 30
25 25 29 36 37 36 31 31 30 33 34 31 21 27 28 26 23 23 27 39 41 43 41 34 34 28 25 23 18 18 20 20 20 20 24 27 22 22 30 33 34 33 30 30
27 27 26 31 37 39 39 32 29 37 37 32 24 28 26 18 16 11 9 13 17 28 28 23 21 23 26 28 28 28 29 30 29 26 25 29 32 32 31 28 28 29 35 36
34 36 37 33 30 33 37 38 42 42 29 45 23 27 44 33 28 30 30 19 19 20 16 12 9 6 1 5 8 8 19 22 24 26 28 29 33 38 41 43 47 51 51 53
Wind_Direction_850mb
240 236 209 233 251 242 196 214 191 251 221 262 264 294 301 308 306 308 310 310 310 303 293 293 298 320 316 321 335 327 247 240 236 231 226 230 225 223 219 219 210 222 242 253
240 246 235 236 247 247 248 232 237 252 261 244 297 321 315 309 310 309 305 307 305 302 285 291 299 304 336 326 330 349 240 193 187 205 212 207 204 193 202 195 220 223 257 249
274 261 276 295 234 212 218 215 202 227 237 351 318 328 318 314 309 307 308 311 311 307 294 300 320 324 295 14 37 74 182 180 191 183 194 204 209 212 212 229 233 241 253 260
260 353 217 249 316 322 221 257 226 271 278 278 276 299 310 306 290 303 313 320 317 306 284 306 332 356 314 350 32 44 39 70 158 318 251 233 222 221 224 229 234 262 238 250
208 213 283 287 297 282 119 288 232 253 293 291 311 320 321 311 290 300 307 310 312 301 305 337 9 26 14 51 60 69 68 63 49 51 68 82 119 156 215 223 223 255 254 259
139 206 242 238 286 14 101 294 249 219 260 269 321 324 267 327 305 312 306 303 285 261 263 110 82 86 92 91 86 74 61 51 41 57 41 58 49 35 9 315 271 293 276 258
192 240 287 236 209 161 104 241 257 244 264 285 217 258 296 308 308 305 291 307 243 179 172 121 111 111 105 96 84 74 65 60 52 53 54 52 47 43 266 230 218 251 256 256
120 199 296 171 134 187 225 282 293 298 305 306 305 303 306 310 307 303 278 240 183 160 153 129 122 117 104 92 84 79 79 73 59 62 59 52 44 42 39 138 181 212 228 232
174 222 234 226 247 271 270 290 295 298 305 311 304 302 308 306 297 276 217 168 108 158 155 132 121 105 89 81 82 72 69 69 60 51 59 56 53 48 57 68 125 121 139 134
84 273 249 290 281 275 283 285 290 294 302 305 303 304 302 300 276 246 205 185 162 176 156 134 115 100 91 90 82 63 35 39 56 68 64 57 56 57 64 71 81 94 95 94
251 280 292 286 275 303 298 292 292 301 300 302 307 312 312 300 280 247 212 187 169 175 153 135 119 105 89 70 57 355 306 326 222 137 97 90 82 76 63 68 75 77 76 79
237 268 249 272 295 300 298 304 304 297 295 297 318 327 323 296 246 120 167 181 188 169 172 155 134 116 52 60 78 20 355 215 163 164 133 126 110 95 88 78 81 84 83 79
256 313 294 277 301 295 291 289 295 294 277 290 310 328 350 339 205 137 160 164 171 164 148 142 134 89 346 302 310 326 288 204 196 227 287 280 254 233 204 119 108 103 68 57
315 315 289 300 311 304 288 284 286 296 270 273 307 317 305 310 316 106 165 131 147 180 183 165 171 339 325 311 315 320 87 103 179 40 16 19 323 204 183 155 101 2 313 296
283 284 280 286 287 283 275 272 274 270 264 267 259 305 343 333 6 78 184 194 201 210 209 216 178 87 20 7 36 158 113 72 128 122 94 46 54 113 135 184 269 273 273 326
314 308 296 281 275 270 277 276 281 298 272 264 256 249 282 280 283 260 243 241 233 16 131 223 235 279 340 9 15 158 174 105 92 82 24 3 14 26 37 47 24 341 271 252
352 2 345 321 320 314 299 297 307 307 291 225 234 267 290 270 260 251 242 247 239 250 258 258 238 265 290 336 348 334 186 180 117 34 20 40 63 59 357 343 9 49 29 172
325 349 353 351 341 329 332 334 335 326 299 282 270 270 279 271 265 250 232 242 248 255 260 270 281 268 268 289 288 318 183 201 188 13 59 50 35 21 19 3 1 330 311 298
334 359 0 355 345 322 306 314 313 323 322 290 275 275 269 262 267 262 252 232 243 248 259 262 279 272 270 289 217 192 199 191 165 52 49 46 50 49 43 12 352 317 282 264
15 13 360 346 343 350 333 313 323 309 313 314 273 268 268 259 252 252 251 247 233 228 222 255 275 279 259 216 216 210 225 214 217 253 262 272 297 355 2 360 355 359 341 299
348 343 343 336 325 334 342 351 343 341 331 329 317 303 281 266 249 250 256 241 225 233 234 244 257 251 194 195 260 246 232 246 266 257 248 275 277 275 283 298 324 4 27 20
330 327 327 328 322 318 326 325 336 348 343 336 332 336 341 319 277 258 231 245 248 230 223 232 221 224 242 259 256 265 224 244 243 231 242 273 273 264 267 254 264 283 312 342
335 335 335 345 350 349 345 336 342 341 339 335 328 317 314 329 329 300 322 274 246 232 233 232 223 219 229 247 238 235 252 261 260 260 259 262 267 263 259 256 263 267 273 280
20 25 30 29 18 0 7 8 1 354 346 337 331 329 319 299 279 262 282 291 290 264 251 239 223 219 227 222 220 230 253 251 275 268 252 265 268 259 262 263 268 274 273 265
40 38 32 27 17 12 7 2 360 0 1 354 337 330 328 325 311 271 247 279 288 267 245 240 213 212 220 229 237 252 262 268 279 291 269 256 270 270 258 259 269 271 269 267
42 30 25 29 34 31 21 19 30 22 12 8 351 0 350 343 345 331 283 281 282 261 239 192 209 233 233 241 251 259 267 270 269 268 263 259 263 265 268 269 273 279 275 275
43 34 29 31 32 31 22 21 19 11 8 8 358 13 13 37 63 77 73 73 69 55 73 73 32 42 72 279 300 280 261 269 267 269 269 267 263 260 262 267 272 273 272 271